Location: Morlupo
(42.1333°N, 12.5000°E)
Time: 11:12:13
(UTC+00:00)

Cosmos 1437 - Visible Passes

Search period start: 20 June 2021 00:00
Search period end: 30 June 2021 00:00
Orbit: 337 x 343 km, 81.2° (Epoch: 19 June)

Date Brightness Start Highest point End Pass type
(mag) Time Alt. Az. Time Alt. Az. Time Alt. Az.
20 Jun 4.8 00:22:23 10° NNE 00:24:28 19° ENE 00:24:28 19° ENE visible
20 Jun 4.8 01:55:08 10° WNW 01:55:51 12° WNW 01:55:51 12° WNW visible
21 Jun 3.4 00:44:24 10° N 00:46:35 45° NNE 00:46:35 45° NNE visible
22 Jun 4.0 01:07:06 10° NNW 01:08:40 25° NW 01:08:40 25° NW visible
22 Jun 5.0 23:57:50 10° NNE 23:59:22 19° NE 23:59:22 19° NE visible
24 Jun 4.3 00:19:46 10° N 00:21:25 31° N 00:21:25 31° N visible
25 Jun 4.7 00:42:23 10° NNW 00:43:27 19° NW 00:43:27 19° NW visible
25 Jun 5.1 23:32:53 10° NNE 23:34:04 17° NE 23:34:04 17° NE visible
26 Jun 4.8 23:54:45 10° N 23:56:03 24° N 23:56:03 24° N visible
28 Jun 5.1 00:17:16 10° NNW 00:18:00 15° NW 00:18:00 15° NW visible
28 Jun 5.2 23:07:34 10° NNE 23:08:33 16° NE 23:08:33 16° NE visible
29 Jun 5.0 23:29:20 10° N 23:30:26 21° N 23:30:26 21° N visible
